Time,TemperatureF,DewpointF,PressureIn,WindDirection,WindDirectionDegrees,WindSpeedMPH,WindSpeedGustMPH,Humidity,HourlyPrecipIn,Conditions,Clouds,dailyrainin,SoftwareType,DateUTC
2013-07-14 00:00:00,62.5,51.0,30.05,NNE,19,0.0,0.0,66,0.00,,,0.00,Wunderground v.1.15,2013-07-14 07:00:00,
2013-07-14 00:10:00,63.1,52.0,30.05,NNE,19,0.0,0.0,67,0.00,,,0.00,Wunderground v.1.15,2013-07-14 07:10:00,
2013-07-14 00:20:00,64.0,52.4,30.05,NE,40,0.0,0.0,66,0.00,,,0.00,Wunderground v.1.15,2013-07-14 07:20:00,
2013-07-14 00:30:00,64.3,52.7,30.05,NE,40,0.0,0.0,66,0.00,,,0.00,Wunderground v.1.15,2013-07-14 07:30:00,
2013-07-14 00:40:00,64.3,52.7,30.05,NE,40,0.0,2.0,66,0.00,,,0.00,Wunderground v.1.15,2013-07-14 07:40:00,
2013-07-14 00:45:00,64.2,52.6,30.05,NE,40,0.0,2.0,66,0.00,,,0.00,Wunderground v.1.15,2013-07-14 07:45:00,
2013-07-14 00:55:00,64.0,52.8,30.05,NE,35,0.0,2.0,67,0.00,,,0.00,Wunderground v.1.15,2013-07-14 07:55:00,
2013-07-14 01:00:00,63.9,52.7,30.05,NE,35,0.0,0.0,67,0.00,,,0.00,Wunderground v.1.15,2013-07-14 08:00:00,
2013-07-14 01:10:00,63.6,52.4,30.06,NE,35,0.0,2.0,67,0.00,,,0.00,Wunderground v.1.15,2013-07-14 08:10:00,
2013-07-14 01:20:00,63.2,52.5,30.05,NE,35,0.0,2.0,68,0.00,,,0.00,Wunderground v.1.15,2013-07-14 08:20:00,
2013-07-14 01:30:00,63.0,52.3,30.06,NE,35,0.0,0.0,68,0.00,,,0.00,Wunderground v.1.15,2013-07-14 08:30:00,
2013-07-14 01:40:00,62.7,52.4,30.06,NE,35,0.0,4.0,69,0.00,,,0.00,Wunderground v.1.15,2013-07-14 08:40:00,
2013-07-14 01:50:00,62.3,52.0,30.06,NE,35,0.0,4.0,69,0.00,,,0.00,Wunderground v.1.15,2013-07-14 08:50:00,
2013-07-14 02:00:00,61.6,52.1,30.06,NE,35,0.0,0.0,71,0.00,,,0.00,Wunderground v.1.15,2013-07-14 09:00:00,
2013-07-14 02:10:00,60.9,51.8,30.06,NE,35,0.0,3.0,72,0.00,,,0.00,Wunderground v.1.15,2013-07-14 09:10:00,
2013-07-14 02:15:00,60.5,52.2,30.06,NE,35,0.0,3.0,74,0.00,,,0.00,Wunderground v.1.15,2013-07-14 09:15:00,
2013-07-14 02:25:00,60.2,51.9,30.06,NE,35,0.0,3.0,74,0.00,,,0.00,Wunderground v.1.15,2013-07-14 09:25:00,
2013-07-14 02:30:00,60.0,52.1,30.06,NE,35,0.0,0.0,75,0.00,,,0.00,Wunderground v.1.15,2013-07-14 09:30:00,
2013-07-14 02:40:00,59.4,51.5,30.06,NE,35,0.0,2.0,75,0.00,,,0.00,Wunderground v.1.15,2013-07-14 09:40:00,
2013-07-14 02:50:00,58.8,51.2,30.06,NE,35,0.0,2.0,76,0.00,,,0.00,Wunderground v.1.15,2013-07-14 09:50:00,
2013-07-14 03:00:00,58.3,51.8,30.06,NE,35,0.0,0.0,79,0.00,,,0.00,Wunderground v.1.15,2013-07-14 10:00:00,
2013-07-14 03:10:00,57.8,51.7,30.06,NE,35,0.0,1.0,80,0.00,,,0.00,Wunderground v.1.15,2013-07-14 10:10:00,
2013-07-14 03:20:00,57.2,51.8,30.06,NE,35,0.0,1.0,82,0.00,,,0.00,Wunderground v.1.15,2013-07-14 10:20:00,
2013-07-14 03:30:00,56.7,51.6,30.06,NE,35,0.0,0.0,83,0.00,,,0.00,Wunderground v.1.15,2013-07-14 10:30:00,
2013-07-14 03:40:00,56.8,51.7,30.06,NE,35,0.0,0.0,83,0.00,,,0.00,Wunderground v.1.15,2013-07-14 10:40:00,
2013-07-14 03:50:00,56.8,51.7,30.06,NE,35,0.0,0.0,83,0.00,,,0.00,Wunderground v.1.15,2013-07-14 10:50:00,
2013-07-14 04:00:00,56.5,51.4,30.06,NE,35,0.0,0.0,83,0.00,,,0.00,Wunderground v.1.15,2013-07-14 11:00:00,
2013-07-14 04:10:00,56.3,51.5,30.06,NE,35,0.0,0.0,84,0.00,,,0.00,Wunderground v.1.15,2013-07-14 11:10:00,
2013-07-14 04:20:00,55.8,51.0,30.06,NE,35,0.0,0.0,84,0.00,,,0.00,Wunderground v.1.15,2013-07-14 11:20:00,
2013-07-14 04:30:00,55.3,50.9,30.06,NE,35,0.0,0.0,85,0.00,,,0.00,Wunderground v.1.15,2013-07-14 11:30:00,
2013-07-14 04:40:00,54.8,50.7,30.06,NE,35,0.0,0.0,86,0.00,,,0.00,Wunderground v.1.15,2013-07-14 11:40:00,
2013-07-14 04:45:00,54.5,50.4,30.06,NE,35,0.0,0.0,86,0.00,,,0.00,Wunderground v.1.15,2013-07-14 11:45:00,
2013-07-14 05:00:00,53.8,49.7,30.07,NE,35,0.0,0.0,86,0.00,,,0.00,Wunderground v.1.15,2013-07-14 12:00:00,
2013-07-14 05:10:00,53.5,49.7,30.07,NE,35,0.0,0.0,87,0.00,,,0.00,Wunderground v.1.15,2013-07-14 12:10:00,
2013-07-14 05:20:00,53.4,49.6,30.07,NE,35,0.0,0.0,87,0.00,,,0.00,Wunderground v.1.15,2013-07-14 12:20:00,
2013-07-14 05:30:00,53.3,49.5,30.07,NE,35,0.0,0.0,87,0.00,,,0.00,Wunderground v.1.15,2013-07-14 12:30:00,
2013-07-14 05:40:00,53.1,49.6,30.07,NE,35,0.0,0.0,88,0.00,,,0.00,Wunderground v.1.15,2013-07-14 12:40:00,
2013-07-14 05:45:00,53.0,49.5,30.07,NE,35,0.0,0.0,88,0.00,,,0.00,Wunderground v.1.15,2013-07-14 12:45:00,
2013-07-14 05:55:00,52.8,49.3,30.07,NE,35,0.0,0.0,88,0.00,,,0.00,Wunderground v.1.15,2013-07-14 12:55:00,
2013-07-14 06:00:00,52.6,49.1,30.07,NE,35,0.0,0.0,88,0.00,,,0.00,Wunderground v.1.15,2013-07-14 13:00:00,
2013-07-14 06:10:00,52.7,49.2,30.07,NE,35,0.0,0.0,88,0.00,,,0.00,Wunderground v.1.15,2013-07-14 13:10:00,
2013-07-14 06:20:00,53.5,50.0,30.07,NE,35,0.0,0.0,88,0.00,,,0.00,Wunderground v.1.15,2013-07-14 13:20:00,
2013-07-14 06:25:00,54.1,50.6,30.07,NE,35,0.0,0.0,88,0.00,,,0.00,Wunderground v.1.15,2013-07-14 13:25:00,
2013-07-14 06:30:00,54.6,51.1,30.07,NE,35,0.0,0.0,88,0.00,,,0.00,Wunderground v.1.15,2013-07-14 13:30:00,
2013-07-14 06:40:00,55.6,51.8,30.08,NE,35,0.0,0.0,87,0.00,,,0.00,Wunderground v.1.15,2013-07-14 13:40:00,
2013-07-14 06:50:00,56.8,52.0,30.08,NE,35,0.0,0.0,84,0.00,,,0.00,Wunderground v.1.15,2013-07-14 13:50:00,
2013-07-14 07:00:00,58.6,52.8,30.08,NE,35,0.0,0.0,81,0.00,,,0.00,Wunderground v.1.15,2013-07-14 14:00:00,
2013-07-14 07:10:00,59.1,52.2,30.08,NE,35,0.0,2.0,78,0.00,,,0.00,Wunderground v.1.15,2013-07-14 14:10:00,
2013-07-14 07:20:00,59.6,52.7,30.08,NE,35,0.0,0.0,78,0.00,,,0.00,Wunderground v.1.15,2013-07-14 14:20:00,
2013-07-14 07:30:00,60.1,52.9,30.08,NE,39,1.0,2.0,77,0.00,,,0.00,Wunderground v.1.15,2013-07-14 14:30:00,
2013-07-14 07:40:00,60.5,53.3,30.08,East,101,1.0,2.0,77,0.00,,,0.00,Wunderground v.1.15,2013-07-14 14:40:00,
2013-07-14 07:50:00,61.2,53.2,30.08,East,92,2.0,4.0,75,0.00,,,0.00,Wunderground v.1.15,2013-07-14 14:50:00,
2013-07-14 08:00:00,62.0,53.6,30.08,East,84,1.0,3.0,74,0.00,,,0.00,Wunderground v.1.15,2013-07-14 15:00:00,
2013-07-14 08:10:00,62.8,53.3,30.07,ENE,76,1.0,5.0,71,0.00,,,0.00,Wunderground v.1.15,2013-07-14 15:10:00,
2013-07-14 08:20:00,63.7,52.5,30.08,NE,40,2.0,2.0,67,0.00,,,0.00,Wunderground v.1.15,2013-07-14 15:20:00,
2013-07-14 08:30:00,63.9,52.7,30.08,NE,40,3.0,3.0,67,0.00,,,0.00,Wunderground v.1.15,2013-07-14 15:30:00,
2013-07-14 08:40:00,64.8,53.2,30.08,NE,40,2.0,5.0,66,0.00,,,0.00,Wunderground v.1.15,2013-07-14 15:40:00,
2013-07-14 08:50:00,65.6,52.7,30.08,NE,55,3.0,5.0,63,0.00,,,0.00,Wunderground v.1.15,2013-07-14 15:50:00,
2013-07-14 09:00:00,66.2,53.7,30.08,ENE,74,2.0,2.0,64,0.00,,,0.00,Wunderground v.1.15,2013-07-14 16:00:00,
2013-07-14 09:10:00,66.8,53.8,30.07,NE,39,2.0,7.0,63,0.00,,,0.00,Wunderground v.1.15,2013-07-14 16:10:00,
2013-07-14 09:20:00,67.4,54.4,30.07,ENE,69,4.0,4.0,63,0.00,,,0.00,Wunderground v.1.15,2013-07-14 16:20:00,
2013-07-14 09:30:00,68.0,53.1,30.07,NE,41,3.0,3.0,59,0.00,,,0.00,Wunderground v.1.15,2013-07-14 16:30:00,
2013-07-14 09:40:00,68.6,53.2,30.07,NW,311,3.0,3.0,58,0.00,,,0.00,Wunderground v.1.15,2013-07-14 16:40:00,
2013-07-14 09:45:00,69.1,53.7,30.07,NE,47,2.0,4.0,58,0.00,,,0.00,Wunderground v.1.15,2013-07-14 16:45:00,
2013-07-14 09:55:00,69.8,53.4,30.07,NE,44,3.0,7.0,56,0.00,,,0.00,Wunderground v.1.15,2013-07-14 16:55:00,
2013-07-14 10:00:00,70.0,54.1,30.07,ESE,109,2.0,4.0,57,0.00,,,0.00,Wunderground v.1.15,2013-07-14 17:00:00,
2013-07-14 10:10:00,71.0,53.5,30.06,East,91,3.0,8.0,54,0.00,,,0.00,Wunderground v.1.15,2013-07-14 17:10:00,
2013-07-14 10:20:00,71.3,53.3,30.06,ENE,74,4.0,4.0,53,0.00,,,0.00,Wunderground v.1.15,2013-07-14 17:20:00,
2013-07-14 10:30:00,71.7,53.7,30.06,East,95,3.0,3.0,53,0.00,,,0.00,Wunderground v.1.15,2013-07-14 17:30:00,
2013-07-14 10:40:00,72.5,53.9,30.06,NE,51,2.0,2.0,52,0.00,,,0.00,Wunderground v.1.15,2013-07-14 17:40:00,
2013-07-14 10:50:00,73.1,53.4,30.06,East,94,4.0,4.0,50,0.00,,,0.00,Wunderground v.1.15,2013-07-14 17:50:00,
2013-07-14 10:55:00,73.4,53.1,30.06,East,82,5.0,5.0,49,0.00,,,0.00,Wunderground v.1.15,2013-07-14 17:55:00,
2013-07-14 11:00:00,73.6,53.8,30.06,NE,52,4.0,4.0,50,0.00,,,0.00,Wunderground v.1.15,2013-07-14 18:00:00,
2013-07-14 11:10:00,73.7,53.3,30.05,NE,54,4.0,4.0,49,0.00,,,0.00,Wunderground v.1.15,2013-07-14 18:10:00,
2013-07-14 11:20:00,74.4,54.0,30.05,NE,41,3.0,3.0,49,0.00,,,0.00,Wunderground v.1.15,2013-07-14 18:20:00,
2013-07-14 11:30:00,75.4,53.2,30.05,WNW,300,2.0,5.0,46,0.00,,,0.00,Wunderground v.1.15,2013-07-14 18:30:00,
2013-07-14 11:40:00,76.0,54.9,30.05,ENE,67,3.0,3.0,48,0.00,,,0.00,Wunderground v.1.15,2013-07-14 18:40:00,
2013-07-14 11:50:00,76.7,54.4,30.04,NE,55,4.0,4.0,46,0.00,,,0.00,Wunderground v.1.15,2013-07-14 18:50:00,
2013-07-14 12:00:00,77.1,54.1,30.04,NE,34,2.0,2.0,45,0.00,,,0.00,Wunderground v.1.15,2013-07-14 19:00:00,
2013-07-14 12:10:00,77.3,54.3,30.04,NNE,26,3.0,3.0,45,0.00,,,0.00,Wunderground v.1.15,2013-07-14 19:10:00,
2013-07-14 12:20:00,77.7,54.0,30.03,ENE,61,3.0,8.0,44,0.00,,,0.00,Wunderground v.1.15,2013-07-14 19:20:00,
2013-07-14 12:30:00,78.4,54.7,30.03,ESE,119,4.0,5.0,44,0.00,,,0.00,Wunderground v.1.15,2013-07-14 19:30:00,
2013-07-14 12:40:00,78.8,54.4,30.03,ENE,61,4.0,11.0,43,0.00,,,0.00,Wunderground v.1.15,2013-07-14 19:40:00,
2013-07-14 12:50:00,79.5,55.7,30.03,ENE,65,4.0,11.0,44,0.00,,,0.00,Wunderground v.1.15,2013-07-14 19:50:00,
2013-07-14 13:00:00,80.5,54.6,30.02,NNW,336,3.0,4.0,41,0.00,,,0.00,Wunderground v.1.15,2013-07-14 20:00:00,
2013-07-14 13:10:00,81.1,54.5,30.02,ENE,68,3.0,9.0,40,0.00,,,0.00,Wunderground v.1.15,2013-07-14 20:10:00,
2013-07-14 13:15:00,81.1,54.5,30.02,NE,36,4.0,9.0,40,0.00,,,0.00,Wunderground v.1.15,2013-07-14 20:15:00,
2013-07-14 13:25:00,81.7,54.3,30.02,ENE,57,3.0,9.0,39,0.00,,,0.00,Wunderground v.1.15,2013-07-14 20:25:00,
2013-07-14 13:30:00,81.8,54.4,30.02,East,83,3.0,4.0,39,0.00,,,0.00,Wunderground v.1.15,2013-07-14 20:30:00,
2013-07-14 13:40:00,82.5,53.6,30.01,NE,38,3.0,3.0,37,0.00,,,0.00,Wunderground v.1.15,2013-07-14 20:40:00,
2013-07-14 13:50:00,83.4,53.6,30.01,ENE,64,2.0,2.0,36,0.00,,,0.00,Wunderground v.1.15,2013-07-14 20:50:00,
2013-07-14 14:00:00,83.7,53.9,30.01,NE,46,3.0,3.0,36,0.00,,,0.00,Wunderground v.1.15,2013-07-14 21:00:00,
2013-07-14 14:05:00,84.2,52.8,30.00,NW,316,2.0,4.0,34,0.00,,,0.00,Wunderground v.1.15,2013-07-14 21:05:00,
2013-07-14 14:15:00,84.5,52.2,30.00,NNE,18,4.0,11.0,33,0.00,,,0.00,Wunderground v.1.15,2013-07-14 21:15:00,
2013-07-14 14:25:00,85.0,51.8,30.00,North,349,3.0,11.0,32,0.00,,,0.00,Wunderground v.1.15,2013-07-14 21:25:00,
2013-07-14 14:30:00,85.4,52.2,30.00,NE,52,3.0,6.0,32,0.00,,,0.00,Wunderground v.1.15,2013-07-14 21:30:00,
2013-07-14 14:40:00,86.1,52.8,30.00,NNE,26,3.0,3.0,32,0.00,,,0.00,Wunderground v.1.15,2013-07-14 21:40:00,
2013-07-14 14:50:00,86.3,50.3,29.99,NE,44,3.0,10.0,29,0.00,,,0.00,Wunderground v.1.15,2013-07-14 21:50:00,
2013-07-14 14:55:00,86.1,51.9,29.99,North,360,3.0,10.0,31,0.00,,,0.00,Wunderground v.1.15,2013-07-14 21:55:00,
2013-07-14 15:00:00,86.1,51.9,29.99,NE,34,4.0,4.0,31,0.00,,,0.00,Wunderground v.1.15,2013-07-14 22:00:00,
2013-07-14 15:10:00,86.4,51.3,29.99,WNW,293,4.0,11.0,30,0.00,,,0.00,Wunderground v.1.15,2013-07-14 22:10:00,
2013-07-14 15:20:00,86.6,51.5,29.98,NNW,337,3.0,11.0,30,0.00,,,0.00,Wunderground v.1.15,2013-07-14 22:20:00,
2013-07-14 15:30:00,86.8,52.5,29.98,NW,317,3.0,6.0,31,0.00,,,0.00,Wunderground v.1.15,2013-07-14 22:30:00,
2013-07-14 15:40:00,87.1,51.0,29.98,North,360,3.0,12.0,29,0.00,,,0.00,Wunderground v.1.15,2013-07-14 22:40:00,
2013-07-14 15:45:00,87.2,50.1,29.97,ENE,57,3.0,12.0,28,0.00,,,0.00,Wunderground v.1.15,2013-07-14 22:45:00,
2013-07-14 15:55:00,87.6,51.4,29.97,NE,51,2.0,12.0,29,0.00,,,0.00,Wunderground v.1.15,2013-07-14 22:55:00,
2013-07-14 16:00:00,87.9,50.7,29.97,NNE,24,2.0,2.0,28,0.00,,,0.00,Wunderground v.1.15,2013-07-14 23:00:00,
2013-07-14 16:10:00,88.0,51.8,29.96,ESE,110,3.0,3.0,29,0.00,,,0.00,Wunderground v.1.15,2013-07-14 23:10:00,
2013-07-14 16:20:00,88.2,51.9,29.96,ENE,61,2.0,12.0,29,0.00,,,0.00,Wunderground v.1.15,2013-07-14 23:20:00,
2013-07-14 16:30:00,88.4,49.2,29.96,NE,47,2.0,3.0,26,0.00,,,0.00,Wunderground v.1.15,2013-07-14 23:30:00,
2013-07-14 16:40:00,88.0,50.8,29.95,NE,52,3.0,11.0,28,0.00,,,0.00,Wunderground v.1.15,2013-07-14 23:40:00,
2013-07-14 16:50:00,88.4,51.1,29.95,NE,39,3.0,11.0,28,0.00,,,0.00,Wunderground v.1.15,2013-07-14 23:50:00,
2013-07-14 17:00:00,88.4,49.2,29.95,NW,312,3.0,3.0,26,0.00,,,0.00,Wunderground v.1.15,2013-07-15 00:00:00,
2013-07-14 17:10:00,88.5,50.3,29.94,NE,38,3.0,3.0,27,0.00,,,0.00,Wunderground v.1.15,2013-07-15 00:10:00,
2013-07-14 17:15:00,88.5,49.2,29.94,WNW,286,2.0,8.0,26,0.00,,,0.00,Wunderground v.1.15,2013-07-15 00:15:00,
2013-07-14 17:25:00,89.1,46.5,29.94,NE,36,2.0,4.0,23,0.00,,,0.00,Wunderground v.1.15,2013-07-15 00:25:00,
2013-07-14 17:30:00,88.8,45.0,29.94,NW,311,2.0,2.0,22,0.00,,,0.00,Wunderground v.1.15,2013-07-15 00:30:00,
2013-07-14 17:40:00,88.6,43.7,29.94,WNW,300,3.0,3.0,21,0.00,,,0.00,Wunderground v.1.15,2013-07-15 00:40:00,
2013-07-14 17:50:00,88.5,43.6,29.94,NE,41,4.0,4.0,21,0.00,,,0.00,Wunderground v.1.15,2013-07-15 00:50:00,
2013-07-14 18:00:00,88.7,45.0,29.93,NW,313,2.0,6.0,22,0.00,,,0.00,Wunderground v.1.15,2013-07-15 01:00:00,
2013-07-14 18:10:00,88.4,45.9,29.93,West,269,3.0,3.0,23,0.00,,,0.00,Wunderground v.1.15,2013-07-15 01:10:00,
2013-07-14 18:20:00,87.9,47.7,29.93,NE,41,3.0,10.0,25,0.00,,,0.00,Wunderground v.1.15,2013-07-15 01:20:00,
2013-07-14 18:30:00,87.9,47.7,29.93,WNW,296,2.0,4.0,25,0.00,,,0.00,Wunderground v.1.15,2013-07-15 01:30:00,
2013-07-14 18:40:00,87.4,48.3,29.93,NE,36,2.0,2.0,26,0.00,,,0.00,Wunderground v.1.15,2013-07-15 01:40:00,
2013-07-14 18:50:00,87.0,48.0,29.93,NE,40,3.0,9.0,26,0.00,,,0.00,Wunderground v.1.15,2013-07-15 01:50:00,
2013-07-14 19:00:00,86.3,47.4,29.93,ENE,62,3.0,3.0,26,0.00,,,0.00,Wunderground v.1.15,2013-07-15 02:00:00,
2013-07-14 19:10:00,86.0,48.1,29.93,NW,309,3.0,14.0,27,0.00,,,0.00,Wunderground v.1.15,2013-07-15 02:10:00,
2013-07-14 19:20:00,85.4,48.6,29.93,NE,48,3.0,14.0,28,0.00,,,0.00,Wunderground v.1.15,2013-07-15 02:20:00,
2013-07-14 19:30:00,85.1,49.3,29.93,NNW,339,2.0,4.0,29,0.00,,,0.00,Wunderground v.1.15,2013-07-15 02:30:00,
2013-07-14 19:40:00,84.2,49.4,29.93,West,273,2.0,12.0,30,0.00,,,0.00,Wunderground v.1.15,2013-07-15 02:40:00,
2013-07-14 19:45:00,83.6,48.9,29.94,East,88,3.0,12.0,30,0.00,,,0.00,Wunderground v.1.15,2013-07-15 02:45:00,
2013-07-14 19:55:00,82.7,49.0,29.94,NE,47,2.0,12.0,31,0.00,,,0.00,Wunderground v.1.15,2013-07-15 02:55:00,
2013-07-14 20:00:00,82.3,49.5,29.94,NW,306,2.0,2.0,32,0.00,,,0.00,Wunderground v.1.15,2013-07-15 03:00:00,
2013-07-14 20:10:00,81.6,50.5,29.94,NNW,331,2.0,9.0,34,0.00,,,0.00,Wunderground v.1.15,2013-07-15 03:10:00,
2013-07-14 20:20:00,80.8,51.4,29.94,NNE,27,1.0,1.0,36,0.00,,,0.00,Wunderground v.1.15,2013-07-15 03:20:00,
2013-07-14 20:30:00,80.0,52.1,29.94,NNW,336,2.0,2.0,38,0.00,,,0.00,Wunderground v.1.15,2013-07-15 03:30:00,
2013-07-14 20:40:00,79.2,52.1,29.95,North,355,0.0,9.0,39,0.00,,,0.00,Wunderground v.1.15,2013-07-15 03:40:00,
2013-07-14 20:50:00,78.3,52.7,29.95,NNW,331,2.0,2.0,41,0.00,,,0.00,Wunderground v.1.15,2013-07-15 03:50:00,
2013-07-14 21:00:00,77.4,51.9,29.95,NW,317,1.0,4.0,41,0.00,,,0.00,Wunderground v.1.15,2013-07-15 04:00:00,
2013-07-14 21:05:00,76.9,50.7,29.95,NE,42,2.0,8.0,40,0.00,,,0.00,Wunderground v.1.15,2013-07-15 04:05:00,
2013-07-14 21:10:00,76.4,50.3,29.95,NW,323,2.0,8.0,40,0.00,,,0.00,Wunderground v.1.15,2013-07-15 04:10:00,
2013-07-14 21:15:00,75.9,49.8,29.95,North,5,1.0,8.0,40,0.00,,,0.00,Wunderground v.1.15,2013-07-15 04:15:00,
2013-07-14 21:25:00,75.1,48.4,29.96,NNE,26,1.0,8.0,39,0.00,,,0.00,Wunderground v.1.15,2013-07-15 04:25:00,
2013-07-14 21:30:00,74.7,48.1,29.96,NNE,15,1.0,1.0,39,0.00,,,0.00,Wunderground v.1.15,2013-07-15 04:30:00,
2013-07-14 21:40:00,73.9,46.7,29.96,NE,38,1.0,1.0,38,0.00,,,0.00,Wunderground v.1.15,2013-07-15 04:40:00,
2013-07-14 21:45:00,73.5,46.3,29.96,NNE,33,1.0,8.0,38,0.00,,,0.00,Wunderground v.1.15,2013-07-15 04:45:00,
2013-07-14 21:50:00,73.1,45.3,29.96,NNE,31,1.0,1.0,37,0.00,,,0.00,Wunderground v.1.15,2013-07-15 04:50:00,
2013-07-14 22:00:00,72.4,43.9,29.97,NNW,330,0.0,0.0,36,0.00,,,0.00,Wunderground v.1.15,2013-07-15 05:00:00,
2013-07-14 22:10:00,71.8,43.4,29.97,NNE,32,0.0,6.0,36,0.00,,,0.00,Wunderground v.1.15,2013-07-15 05:10:00,
2013-07-14 22:20:00,71.1,41.3,29.97,NNE,24,0.0,6.0,34,0.00,,,0.00,Wunderground v.1.15,2013-07-15 05:20:00,
2013-07-14 22:30:00,70.7,40.9,29.98,NW,325,0.0,0.0,34,0.00,,,0.00,Wunderground v.1.15,2013-07-15 05:30:00,
2013-07-14 22:40:00,70.0,41.8,29.98,NW,325,0.0,6.0,36,0.00,,,0.00,Wunderground v.1.15,2013-07-15 05:40:00,
2013-07-14 22:50:00,68.9,42.9,29.98,NW,325,0.0,6.0,39,0.00,,,0.00,Wunderground v.1.15,2013-07-15 05:50:00,
2013-07-14 23:00:00,67.1,43.8,29.98,NW,325,0.0,0.0,43,0.00,,,0.00,Wunderground v.1.15,2013-07-15 06:00:00,
2013-07-14 23:10:00,65.9,44.5,29.98,NW,325,0.0,5.0,46,0.00,,,0.00,Wunderground v.1.15,2013-07-15 06:10:00,
2013-07-14 23:20:00,64.8,44.1,29.99,NW,325,0.0,5.0,47,0.00,,,0.00,Wunderground v.1.15,2013-07-15 06:20:00,
2013-07-14 23:30:00,63.7,43.6,29.99,NW,325,0.0,0.0,48,0.00,,,0.00,Wunderground v.1.15,2013-07-15 06:30:00,
2013-07-14 23:40:00,63.0,42.4,29.99,NW,325,0.0,0.0,47,0.00,,,0.00,Wunderground v.1.15,2013-07-15 06:40:00,
2013-07-14 23:50:00,62.9,40.0,30.00,NE,50,0.0,0.0,43,0.00,,,0.00,Wunderground v.1.15,2013-07-15 06:50:00,